Change the Weather History Date:

Tuesday, March 19, 2013

  Actual Average (KRPD) Record (KRPD)
Temperature  
Mean Temperature 19 °F -  
Max Temperature 26 °F 36 °F 73 °F (2012)
Min Temperature 12 °F 19 °F 1 °F (2006)
Degree Days  
Heating Degree Days 46    
Moisture  
Dew Point 7 °F    
Average Humidity 61    
Maximum Humidity 86    
Minimum Humidity 39    
Precipitation  
Precipitation 0.00 in - - ()
Sea Level Pressure  
Sea Level Pressure 29.82 in    
Wind  
Wind Speed 17 mph (WNW)    
Max Wind Speed 23 mph    
Max Gust Speed 30 mph    
Visibility 8 miles    
Events Snow    
Averages and records for this station are not official NWS values.
T = Trace of Precipitation, MM = Missing Value Source: NWS Daily Summary

Daily Weather History Graph

Daily Weather History Graph

Search for Another Location

Airport or City:

Trip Planner

Search our weather history database for the weather conditions in past years. The results will help you decide how hot, cold, wet, or windy it might be!

Date:

Astronomy

Mar. 19, 2013 Rise Set
Actual Time 7:08 AM CDT 7:15 PM CDT
Civil Twilight 6:38 AM CDT 7:45 PM CDT
Nautical Twilight 6:04 AM CDT 8:19 PM CDT
Astronomical Twilight 5:28 AM CDT 8:55 PM CDT
Moon 11:42 AM CDT (3/19) 2:18 AM CDT (3/19)
Length of Visible Light 13h 06m
Length of Day
12h 07m
Waxing Crescent, 50% of the Moon is Illuminated
Mar 19
Waxing Crescent
Mar 19
First Quarter
Mar 27
Full
Apr 2
Last Quarter
Apr 10
New

Hourly Weather History & Observations

Time (CDT) Temp. Windchill Dew Point Humidity Pressure Visibility Wind Dir Wind Speed Gust Speed Precip Events Conditions
12:15 AM 17.6 °F 3.2 °F 12.2 °F 79% 29.60 in 7.0 mi West 15.0 mph 21.9 mph N/A Snow Light Snow
12:35 AM 17.6 °F 2.7 °F 12.2 °F 79% 29.60 in 7.0 mi West 16.1 mph 23.0 mph N/A Snow Light Snow
12:55 AM 17.6 °F 2.2 °F 12.2 °F 79% 29.60 in 7.0 mi West 17.3 mph 23.0 mph N/A Snow Light Snow
1:15 AM 17.6 °F 1.7 °F 12.2 °F 79% 29.61 in 10.0 mi West 18.4 mph - N/A Snow Light Snow
1:35 AM 17.6 °F 2.2 °F 10.4 °F 73% 29.61 in 10.0 mi West 17.3 mph 21.9 mph N/A   Overcast
1:55 AM 15.8 °F 0.9 °F 10.4 °F 79% 29.61 in 10.0 mi West 15.0 mph 24.2 mph N/A   Overcast
2:15 AM 15.8 °F 0.3 °F 10.4 °F 79% 29.62 in 10.0 mi West 16.1 mph 24.2 mph N/A   Overcast
2:35 AM 14.0 °F -3.0 °F 10.4 °F 86% 29.63 in 7.0 mi West 18.4 mph 24.2 mph N/A Snow Light Snow
2:55 AM 14.0 °F -2.5 °F 8.6 °F 79% 29.63 in 7.0 mi West 17.3 mph 24.2 mph N/A Snow Light Snow
3:15 AM 14.0 °F -1.4 °F 8.6 °F 79% 29.64 in 7.0 mi West 15.0 mph 24.2 mph N/A Snow Light Snow
3:35 AM 14.0 °F -2.5 °F 8.6 °F 79% 29.64 in 7.0 mi West 17.3 mph - N/A Snow Light Snow
3:55 AM 14.0 °F -1.4 °F 8.6 °F 79% 29.65 in 7.0 mi West 15.0 mph - N/A Snow Light Snow
4:15 AM 14.0 °F -3.0 °F 8.6 °F 79% 29.66 in 7.0 mi West 18.4 mph 21.9 mph N/A Snow Light Snow
4:35 AM 12.2 °F -4.3 °F 8.6 °F 85% 29.66 in 5.0 mi West 16.1 mph 25.3 mph N/A Snow Light Snow
5:15 AM 12.2 °F -4.3 °F 8.6 °F 85% 29.67 in 7.0 mi West 16.1 mph - N/A Snow Light Snow
5:35 AM 12.2 °F -4.8 °F 6.8 °F 79% 29.68 in 7.0 mi West 17.3 mph - N/A Snow Light Snow
5:55 AM 12.2 °F -4.3 °F 6.8 °F 79% 29.69 in 7.0 mi West 16.1 mph - N/A Snow Light Snow
6:15 AM 12.2 °F -5.3 °F 6.8 °F 79% 29.70 in 10.0 mi WNW 18.4 mph 23.0 mph N/A   Overcast
6:35 AM 12.2 °F -3.7 °F 6.8 °F 79% 29.71 in 10.0 mi West 15.0 mph - N/A   Overcast
6:55 AM 12.2 °F -4.3 °F 6.8 °F 79% 29.73 in 10.0 mi West 16.1 mph 21.9 mph N/A   Overcast
7:15 AM 12.2 °F -3.7 °F 6.8 °F 79% 29.73 in 10.0 mi West 15.0 mph 20.7 mph N/A   Overcast
7:35 AM 12.2 °F -5.3 °F 6.8 °F 79% 29.74 in 10.0 mi West 18.4 mph 21.9 mph N/A   Overcast
8:15 AM 12.2 °F -4.3 °F 5.0 °F 73% 29.77 in 10.0 mi West 16.1 mph 21.9 mph N/A   Overcast
9:15 AM 12.2 °F -5.3 °F 5.0 °F 73% 29.78 in 7.0 mi WNW 18.4 mph 23.0 mph N/A Snow Light Snow
9:35 AM 14.0 °F -3.0 °F 5.0 °F 67% 29.80 in 4.0 mi WNW 18.4 mph 25.3 mph N/A   Haze
9:55 AM 14.0 °F -0.8 °F 6.8 °F 73% 29.80 in 1.2 mi West 13.8 mph - N/A   Haze
10:15 AM 14.0 °F -2.0 °F 6.8 °F 73% 29.81 in 1.2 mi WNW 16.1 mph - N/A Snow Light Snow
11:15 AM 17.6 °F 0.1 °F 8.6 °F 68% 29.83 in 1.2 mi WNW 23.0 mph - N/A Snow Light Snow
11:35 AM 19.4 °F 3.6 °F 8.6 °F 63% 29.83 in 1.2 mi WNW 19.6 mph 24.2 mph N/A   Haze
11:55 AM 19.4 °F 3.6 °F 8.6 °F 63% 29.84 in 4.0 mi West 19.6 mph 25.3 mph N/A   Haze
12:15 PM 21.2 °F 6.0 °F 8.6 °F 58% 29.84 in 10.0 mi West 19.6 mph 25.3 mph N/A   Clear
12:35 PM 21.2 °F 4.9 °F 8.6 °F 58% 29.85 in 10.0 mi West 23.0 mph 28.8 mph N/A   Clear
1:15 PM 23.0 °F 8.0 °F 8.6 °F 54% 29.86 in 7.0 mi West 20.7 mph 27.6 mph N/A   Clear
1:35 PM 24.8 °F 11.9 °F 8.6 °F 50% 29.85 in 10.0 mi WNW 16.1 mph - N/A   Clear
1:55 PM 24.8 °F 9.6 °F 8.6 °F 50% 29.86 in 5.0 mi West 23.0 mph 29.9 mph N/A   Haze
2:15 PM 26.6 °F 12.4 °F 8.6 °F 47% 29.86 in 5.0 mi West 21.9 mph 27.6 mph N/A   Haze
2:35 PM 26.6 °F 13.4 °F 8.6 °F 47% 29.86 in 7.0 mi WNW 18.4 mph 27.6 mph N/A   Clear
2:55 PM 26.6 °F 14.7 °F 8.6 °F 47% 29.87 in 10.0 mi West 15.0 mph 28.8 mph N/A   Clear
3:15 PM 26.6 °F 12.4 °F 8.6 °F 47% 29.87 in 10.0 mi West 21.9 mph 26.5 mph N/A   Clear
3:35 PM 26.6 °F 13.4 °F 8.6 °F 47% 29.88 in 10.0 mi West 18.4 mph 23.0 mph N/A   Clear
4:15 PM 26.6 °F 13.4 °F 8.6 °F 47% 29.89 in 10.0 mi West 18.4 mph 24.2 mph N/A   Clear
4:35 PM 26.6 °F 12.7 °F 8.6 °F 47% 29.90 in 10.0 mi West 20.7 mph 24.2 mph N/A   Clear
4:55 PM 26.6 °F 14.3 °F 8.6 °F 47% 29.91 in 10.0 mi West 16.1 mph 24.2 mph N/A   Clear
5:35 PM 26.6 °F 13.4 °F 8.6 °F 47% 29.92 in 10.0 mi West 18.4 mph 24.2 mph N/A   Clear
5:55 PM 26.6 °F 14.3 °F 6.8 °F 43% 29.93 in 10.0 mi West 16.1 mph 24.2 mph N/A   Clear
6:15 PM 26.6 °F 13.8 °F 6.8 °F 43% 29.93 in 10.0 mi West 17.3 mph 21.9 mph N/A   Clear
6:35 PM 24.8 °F 12.4 °F 6.8 °F 46% 29.94 in 10.0 mi West 15.0 mph - N/A   Clear
6:55 PM 24.8 °F 11.9 °F 5.0 °F 43% 29.95 in 10.0 mi West 16.1 mph - N/A   Clear
7:15 PM 23.0 °F 10.1 °F 5.0 °F 46% 29.95 in 10.0 mi West 15.0 mph 20.7 mph N/A   Clear
7:35 PM 23.0 °F 8.7 °F 5.0 °F 46% 29.96 in 10.0 mi West 18.4 mph 26.5 mph N/A   Clear
7:55 PM 23.0 °F 10.6 °F 1.4 °F 39% 29.97 in 10.0 mi WNW 13.8 mph 20.7 mph N/A   Clear
8:15 PM 21.2 °F 6.8 °F 1.4 °F 42% 29.97 in 10.0 mi WNW 17.3 mph - N/A   Clear
8:35 PM 21.2 °F 7.8 °F 1.4 °F 42% 29.98 in 10.0 mi WNW 15.0 mph - N/A   Clear
8:55 PM 21.2 °F 7.3 °F 1.4 °F 42% 29.98 in 10.0 mi WNW 16.1 mph 25.3 mph N/A   Clear
9:15 PM 21.2 °F 8.9 °F 1.4 °F 42% 29.98 in 10.0 mi WNW 12.7 mph 19.6 mph N/A   Clear
9:35 PM 19.4 °F 4.5 °F 1.4 °F 46% 29.99 in 10.0 mi WNW 17.3 mph 23.0 mph N/A   Clear
9:55 PM 19.4 °F 5.0 °F 1.4 °F 46% 29.99 in 10.0 mi WNW 16.1 mph - N/A   Clear
10:15 PM 17.6 °F 2.7 °F -0.4 °F 45% 29.99 in 10.0 mi WNW 16.1 mph 20.7 mph N/A   Clear
10:35 PM 17.6 °F 2.2 °F -0.4 °F 45% 29.99 in 10.0 mi WNW 17.3 mph - N/A   Clear
10:55 PM 17.6 °F 1.3 °F -0.4 °F 45% 30.00 in 10.0 mi WNW 19.6 mph 26.5 mph N/A   Clear
11:15 PM 15.8 °F 0.9 °F -0.4 °F 49% 30.00 in 10.0 mi WNW 15.0 mph 25.3 mph N/A   Clear
11:35 PM 15.8 °F 0.3 °F -0.4 °F 49% 30.00 in 10.0 mi WNW 16.1 mph 24.2 mph N/A   Clear
11:55 PM 14.0 °F -3.4 °F -0.4 °F 53% 30.01 in 10.0 mi WNW 19.6 mph 23.0 mph N/A   Clear